Regional Weather Roundup
Issued by NWS

Home | Current Version | Previous Version | Graphics & Text | Print | Product List | Glossary On
Versions: 1 2 3 4 5 6 7 8 9 10 11 12 13 14 15 16 17 18 19 20 21 22 23 24 25 26 27
000
ASUS45 KCYS 230210
RWRWY

WYOMING REGIONAL WEATHER ROUNDUP
NATIONAL WEATHER SERVICE CHEYENNE WY
700 PM MST WED NOV 22 2017

NOTE:  "FAIR" INDICATES FEW OR NO CLOUDS BELOW 12,000 FEET
WITH NO SIGNIFICANT WEATHER AND/OR OBSTRUCTIONS TO VISIBILITY.

WYZ001-230300-
YELLOWSTONE NATIONAL PARK

CITY           SKY/WX    TMP DP  RH WIND       PRES   REMARKS
LK YELLOWSTONE   N/A     37  36  96 CALM      30.42F
W YELLOWSTONE  NOT AVBL

$$
WYZ002>013-054>058-071-098>099-230300-
NORTHERN WYOMING

CITY           SKY/WX    TMP DP  RH WIND       PRES   REMARKS
JACKSON        CLOUDY    45  39  79 SE7       30.40R
CODY           MOCLDY    58  38  47 W14G23    30.23R
GREYBULL       FAIR      41  35  79 E7        30.21R
WORLAND        FAIR      33  32  96 CALM      30.22R
SHERIDAN       FAIR      45  36  70 CALM      30.12R
BUFFALO        FAIR      49  32  52 SW5       30.17R
GILLETTE       MOCLDY    46  38  73 CALM      30.14R
HULETT         FAIR      54  37  54 SW5       30.12R
NEWCASTLE      FAIR      45  34  65 N8        30.14R

$$
WYZ014>020-022>026-101>103-230300-
CENTRAL WYOMING

CITY           SKY/WX    TMP DP  RH WIND       PRES   REMARKS
BIG PINEY      FAIR      34  34 100 N6        30.43S WCI  29
PINEDALE       FOG       32  32 100 NW3       30.43F VSB 1/4
DUBOIS         CLOUDY    43  34  70 NW15      30.35S
LANDER         FAIR      49  36  61 S6        30.26R
RIVERTON       FAIR      53  37  54 W16       30.26R
CASPER         FAIR      47  38  71 SW9       30.24R
DOUGLAS        FAIR      40  36  86 CALM      30.19S

$$
WYZ021-027>030-104>119-230300-
SOUTHERN WYOMING

CITY           SKY/WX    TMP DP  RH WIND       PRES   REMARKS
EVANSTON       FAIR      46  38  73 SW10      30.46S
KEMMERER       FAIR      41  36  81 CALM      30.46R
FORT BRIDGER   FAIR      45  38  78 SW10      30.49R
ROCK SPRINGS   FAIR      45  37  73 W12       30.43R
DIXON          CLOUDY    47  38  71 W6        30.45R
RAWLINS        FAIR      47  40  76 W21G26    30.36S
SARATOGA       FAIR      43  36  75 W8        30.40S
LARAMIE        FAIR      43  37  79 W16       30.34R
CHEYENNE       FAIR      50  39  66 W16G26    30.26S
TORRINGTON     FAIR      52  41  66 W6        30.16R
PINE BLUFFS    FAIR      52  37  58 NW16G22   30.22S

$$




USA.gov is the U.S. government's official web portal to all federal, state and local government web resources and services.